Lid_Strength_Index
5 5 5 4 5 5 5 4 4 3 3 2 3 3 2 2 3 3 1 1 2 4 4 3 4 5 5 5 7 6 6 6 6 9 10 11 11 11 11 10 11 11 11 11 11 13 14 6 6 10 7 5 6 6
5 5 4 5 5 5 5 4 4 3 3 2 3 3 3 2 3 3 2 1 1 3 4 2 2 3 3 3 4 5 6 6 5 8 8 9 11 9 11 13 8 12 9 11 10 10 7 5 6 4 5 5 5 5
5 4 5 5 5 5 5 4 3 3 3 2 3 3 3 3 3 4 3 2 1 3 3 3 4 2 2 3 2 5 4 5 5 5 6 7 10 8 11 11 9 8 7 9 10 8 7 6 4 4 4 5 4 4
5 4 5 5 5 5 5 4 3 3 3 2 3 3 3 3 3 4 3 2 2 3 6 5 2 3 2 1 2 2 3 4 5 4 6 7 9 7 9 9 9 7 7 9 9 7 6 5 4 4 4 4 4 4
5 5 5 5 5 5 6 4 3 2 3 2 3 3 3 3 4 4 3 2 1 3 6 5 3 3 3 2 2 2 2 3 4 6 6 8 6 7 7 7 9 6 8 9 9 7 6 6 4 3 4 5 4 4
5 5 5 5 5 6 5 4 2 2 3 2 3 3 3 3 4 1 3 0 2 2 4 7 3 4 3 2 2 3 3 4 4 5 7 6 6 6 9 11 7 6 5 5 6 5 5 4 4 3 4 3 3 3
5 4 4 4 5 5 5 3 2 3 3 3 3 3 3 3 4 3 4 1 3 1 4 7 7 3 3 3 3 3 3 4 4 6 7 6 6 6 8 12 7 5 5 5 4 4 5 4 5 3 3 3 3 3
4 4 4 4 5 5 4 3 3 3 2 4 3 3 3 3 4 3 1 3 2 2 3 8 8 6 3 5 6 3 5 4 5 6 5 7 6 8 11 7 6 5 5 5 4 4 4 3 3 3 3 3 3 3
4 4 4 4 4 4 4 3 3 2 4 4 3 3 2 2 3 2 2 2 -0 2 7 7 9 10 4 5 5 5 4 8 5 7 7 6 11 13 8 6 6 5 5 5 4 4 4 4 4 4 3 3 4 3
4 4 2 3 3 3 3 3 3 4 4 3 3 3 5 2 1 2 2 4 4 4 4 8 5 8 5 6 7 7 6 8 10 8 7 9 10 6 6 6 4 4 4 4 5 5 5 5 4 4 4 3 3 3
4 3 3 3 3 3 3 4 4 4 3 3 4 5 3 3 2 4 7 7 7 8 6 6 6 7 4 7 8 6 8 7 11 9 9 10 10 7 5 5 5 4 3 3 3 3 3 3 4 4 4 3 3 3
4 3 3 3 3 3 4 4 4 3 3 4 4 5 2 4 6 8 9 7 9 9 7 7 6 5 5 4 7 7 9 8 12 7 9 13 8 5 5 5 5 5 3 3 3 3 3 3 3 3 3 3 2 2
4 3 3 3 3 5 4 5 4 5 5 3 4 5 6 6 12 11 12 11 10 7 6 6 7 5 6 5 7 7 10 10 7 10 12 9 6 5 5 4 4 4 4 4 3 3 3 3 2 2 3 2 2 2
4 4 3 4 4 4 4 4 4 5 5 5 7 12 9 10 9 9 8 8 6 5 6 5 6 6 5 7 7 10 8 8 12 13 12 8 6 5 4 4 4 4 4 4 3 3 3 3 3 2 2 2 2 2
4 4 4 4 4 4 3 4 4 5 5 7 7 12 9 6 6 6 5 6 5 5 5 6 6 5 8 8 7 9 11 12 11 11 8 6 5 4 4 5 4 4 3 3 3 3 3 3 3 3 3 2 2 2
4 4 4 4 3 4 4 4 5 5 6 6 6 8 7 7 7 6 6 7 4 5 5 5 8 9 9 8 10 10 11 12 9 7 5 5 4 4 4 4 3 3 3 3 3 3 4 4 3 3 3 3 3 3
4 3 4 4 3 4 4 5 6 7 8 7 7 5 6 6 7 6 6 6 4 5 8 7 10 10 7 9 10 8 9 7 6 5 6 5 4 4 4 4 4 4 4 4 5 5 4 4 4 4 4 4 3 2
3 3 3 3 4 3 3 4 5 6 8 6 7 6 6 5 5 5 5 4 5 6 6 8 7 9 10 11 9 7 6 5 5 5 5 4 4 4 4 4 5 5 5 5 5 6 6 5 4 4 4 3 2 2
3 4 3 3 4 4 4 4 4 8 7 6 5 5 5 5 4 4 4 4 3 3 5 7 9 10 8 7 6 6 5 5 5 5 5 5 4 4 5 5 5 5 5 6 6 7 6 5 4 4 3 2 2 2
3 3 3 3 3 5 6 5 3 6 7 6 5 6 5 5 4 4 5 4 5 6 7 8 8 6 6 5 5 4 4 4 5 5 5 6 5 5 6 6 6 6 6 6 7 7 6 5 4 3 3 2 1 2
2 3 3 3 4 4 5 5 6 5 5 6 5 5 6 5 6 6 6 4 6 7 8 6 5 4 3 3 3 3 4 4 4 5 5 7 6 6 7 6 6 6 6 7 6 6 6 4 3 3 3 2 1 0
2 2 3 3 4 4 5 5 5 4 6 6 6 5 6 7 7 7 5 7 7 6 5 5 5 4 4 4 3 3 3 3 4 4 7 7 7 8 7 7 6 6 6 5 5 4 4 3 2 2 2 1 2 0
2 2 3 3 6 7 7 3 7 6 8 7 6 7 7 7 6 4 8 6 6 4 4 4 3 3 4 3 3 3 3 4 5 5 6 6 6 6 6 6 6 6 5 4 3 3 3 4 4 2 1 1 1 1
3 4 6 6 6 9 5 7 6 7 7 8 8 9 8 8 6 8 9 7 5 4 4 4 4 4 4 4 4 3 4 3 4 4 5 6 6 6 5 6 5 4 4 3 3 3 2 2 3 1 1 1 1 1
7 8 7 12 6 8 8 8 8 8 9 8 9 9 9 7 9 9 9 7 6 5 4 4 4 4 5 4 4 4 4 4 5 5 6 5 6 6 6 5 4 3 3 3 3 3 3 2 2 1 1 1 2 2
10 7 9 8 7 9 8 10 9 10 9 9 9 7 7 8 10 10 8 6 5 5 4 4 5 5 4 3 4 4 6 4 4 6 6 5 5 4 5 5 5 4 2 2 2 3 3 2 2 2 2 2 5 2
10 9 6 4 5 6 7 7 7 8 9 10 9 9 9 11 11 8 5 4 4 3 2 2 3 4 4 4 3 4 5 4 3 5 4 3 2 2 2 3 3 2 2 2 2 2 2 2 2 2 1 1 1 1
7 7 9 7 7 6 8 8 8 9 8 7 7 10 11 10 10 6 4 3 3 3 3 3 2 2 2 2 4 5 6 6 7 7 5 4 4 2 1 2 2 6 1 1 1 2 2 2 1 1 1 2 1 0
7 5 6 8 7 7 7 8 7 6 5 7 8 9 8 6 4 4 3 4 4 3 4 4 4 3 3 4 4 5 5 5 5 5 4 4 4 4 3 2 2 2 2 2 6 4 2 2 1 1 1 1 1 0
7 5 7 7 8 8 6 5 6 4 4 4 4 5 5 4 3 2 2 3 4 4 4 3 3 3 4 5 5 5 4 2 2 3 4 4 3 3 2 3 3 2 2 2 2 3 7 4 4 1 2 2 2 1
4 5 7 7 7 6 5 3 3 4 4 5 4 5 5 4 3 3 3 3 4 4 5 5 4 4 4 5 4 4 4 2 3 3 2 2 2 2 2 3 2 2 2 2 2 2 3 3 2 2 2 2 2 3
6 7 7 8 7 5 4 5 5 6 5 6 6 5 5 5 7 4 3 4 5 5 6 5 4 5 4 3 2 2 6 1 1 2 2 2 2 2 2 2 2 2 2 2 2 2 2 3 3 2 2 2 2 2
6 6 6 7 7 7 6 6 7 7 7 7 7 6 6 6 7 4 2 2 3 4 4 4 3 3 2 2 2 2 5 2 3 6 7 6 6 4 2 2 2 2 2 2 3 3 3 3 3 2 2 2 2 2